Miscellaneous Hydrologic Data Report
Issued by NWS (Baltimore/Washington) Sterling, VA
1 of 54 available versions  First Miscellaneous Hydrologic Data Report Previous Miscellaneous Hydrologic Data Report  Print this page Close this Window


000
ASUS41 KLWX 191111
RWRLWX

REGIONAL WEATHER ROUNDUP
NATIONAL WEATHER SERVICE BALTIMORE MD/WASHINGTON DC
600 AM EST MON FEB 19 2018

Note: "FAIR" indicates few or no clouds below 12,000 feet
with no significant weather and/or obstructions to visibility.
 TC=TEMPERATURE CELSIUS

 * =Non NWS site. Station does not report precipitation (e.g. rain,
    snow, etc.), thunder, or fog.

DCZ001-MDZ009-015-VAZ040>042-051-053>054-191200-
WASHINGTON METRO

CITY           SKY/WX    TMP DP  RH WIND       PRES   REMARKS
WASHINGTON NAT CLOUDY    41  35  79 S6        30.50S
DULLES         CLOUDY    39  35  86 S8        30.47S WCI  33
ANDREWS AFB    FAIR      37  33  84 S5        30.47F WCI  33
FT BELVOIR     FAIR      39  36  86 S3        30.48F
QUANTICO       MOCLDY    41  38  89 S9        30.50S
COLLEGE PARK*  FAIR      37  32  84 CALM      30.49R
LEESBURG*      MOCLDY    39  36  87 S7        30.46R WCI  34
MANASSAS*      LGT RAIN  39  34  82 S5        30.49R
GAITHERSBURG*  CLOUDY    38  34  85 S7        30.48R WCI  33

$$

MDZ006>007-011-014-191200-
BALTIMORE METRO

CITY           SKY/WX    TMP DP  RH WIND       PRES   REMARKS
BWI AIRPORT    CLOUDY    35  34  96 E3        30.48S
MD SCIENCE CTR   N/A     38  35  89 MISG      30.49F
MARTIN STATE   MOCLDY    36  36 100 CALM      30.51S
ANNAPOLIS      FAIR      41  38  89 SE3       30.49R
FORT MEADE*    FAIR      32  32 100 CALM      30.51F

$$

MDZ012-015-019>023-191200-
MARYLAND EASTERN SHORE

CITY           SKY/WX    TMP DP  RH WIND       PRES   REMARKS
OCEAN CITY     FAIR      38  37  97 CALM      30.51R
SALISBURY      FAIR      31  29  92 CALM      30.50R
BAY BRIDGE AP* FAIR      39  36  87 S6        30.49S WCI  35
CAMBRIDGE*     CLEAR     37  34  87 CALM      30.50R
EASTON*        CLEAR     37  34  87 SE5       30.53S WCI  34

$$

MDZ017>025-191200-
SOUTHERN MARYLAND

CITY           SKY/WX    TMP DP  RH WIND       PRES   REMARKS
PATUXENT RIVER FAIR      41  37  86 SE6       30.49R
ST INIGOES     FAIR      40  31  70 CALM      30.49R
LEONARDTOWN*   FAIR      36  34  93 CALM      30.50S

$$

MDZ003>005-191200-
NORTH CENTRAL MARYLAND

CITY           SKY/WX    TMP DP  RH WIND       PRES   REMARKS
FREDERICK*     CLOUDY    39  32  75 S6        30.49R WCI  35
HAGERSTOWN APT CLOUDY    40  32  73 S14G24    30.40R WCI  32
WESTMINSTER*   CLOUDY    37  34  87 SE6       30.44S WCI  33

$$

MDZ501>502-191200-
WESTERN MARYLAND

CITY           SKY/WX    TMP DP  RH WIND       PRES   REMARKS
OAKLAND*       CLOUDY    34  34 100 SE13      30.22F WCI  25
CUMBERLAND*    CLOUDY    34  32  93 CALM      30.38S

$$

VAZ025>031-191200-
SHENANDOAH VALLEY

CITY           SKY/WX    TMP DP  RH WIND       PRES   REMARKS
WINCHESTER*    LGT RAIN  37  34  87 S9        30.39F WCI  31
FRONT ROYAL*   CLOUDY    39  36  87 S5        30.36F
LURAY*         LGT RAIN  39  37  93 SW7       30.37F WCI  34
NEW MARKET*    CLOUDY    41  39  91 SW9       30.38F
STAUNTON*      DRIZZLE   39  37  91 S12       30.41F WCI  32
WAYNESBORO*    CLOUDY    38  38 100 SE3       30.41F

$$

WVZ021-048>050-054>055-191200-
EASTERN WEST VIRGINIA PANHANDLE

CITY           SKY/WX    TMP DP  RH WIND       PRES   REMARKS
MARTINSBURG    LGT RAIN  40  33  76 S10       30.39R WCI  33
PETERSBURG*    CLOUDY    44  39  82 SE12      30.33S

$$

VAZ036>039-050-191200-
CENTRAL FOOTHILLS

CITY           SKY/WX    TMP DP  RH WIND       PRES   REMARKS
CHARLOTTESVILL LGT RAIN  41  37  86 SE9       30.46R
CULPEPER*      LGT RAIN  40  35  84 S5        30.49S
ORANGE*        RAIN      37  36  93 CALM      30.48R
GORDONSVILLE*  CLOUDY    38  38 100 CALM      30.49R
WARRENTON*     RAIN      39  34  81 CALM      30.48R

$$

VAZ055>057-191200-
NORTH AND CENTRAL PIEDMONT

CITY           SKY/WX    TMP DP  RH WIND       PRES   REMARKS
FREDERICKSBRG* RAIN      39  36  89 CALM      30.50R
STAFFORD*      RAIN      37  37 100 CALM      30.53S

$$

NCZ024-NYZ072-PAZ021-071-VAZ022-071-191200-
OTHER REGIONAL OBSERVATIONS

CITY           SKY/WX    TMP DP  RH WIND       PRES   REMARKS
NEW YORK CITY  FAIR      39  30  70 VRB5      30.54R
PHILADELPHIA   CLOUDY    37  32  82 SE3       30.50F
PITTSBURGH     MOCLDY    38  30  73 S8        30.16S WCI  32
ROANOKE        LGT RAIN  40  39  97 SE5       30.45R
RICHMOND       RAIN      38  36  92 N3        30.49R
RALEIGH        RAIN      41  39  93 CALM      30.44R FOG

$$

ANZ530>537-191200-
MARINE OBSERVATIONS

STATION/POSITION TIME  TEMP    WIND        PRES
                       AIR SEA DIR/SP/G
                 (UTC) (F)     (DEG/KT/KT) (MB)
THOMAS PT LIGHT  1100   39 38     CALM       N/A
BALT KEY BRIDGE  1048   39     140/  2/  3 1032.8S
COVE POINT       1048   39     190/  8/  9 1033.2R
LEWISETTA        1048   41 43  180/  2/  3 1032.8R
SOLOMONS ISLAND  1048   40 41  140/  4/  5 1032.2R

$$


Close this window


The National Weather Service prepares its forecasts and other services in collaboration with agencies like the US Geological Survey, US Bureau of Reclamation, US Army Corps of Engineers, Natural Resource Conservation Service, National Park Service, ALERT Users Group, Bureau of Indian Affairs, and many state and local emergency managers across the country. For details, please click here.

National Weather Service
(Baltimore/Washington) Sterling Weather Forecast Office
43858 Weather Service Rd.
Sterling, VA 20166
(703) 996-2200
Page last modified: 19-Feb-2018 11:11 AM
Disclaimer
Credits
Glossary
Privacy Policy
About Us
Career Opportunities